TimeAKDT,TemperatureF,Dew PointF,Humidity,Sea Level PressureIn,VisibilityMPH,Wind Direction,Wind SpeedMPH,Gust SpeedMPH,PrecipitationIn,Events,Conditions,WindDirDegrees,DateUTC
12:00 AM,57.0,55.0,93,29.99,10.0,South,8.1,-,N/A,,Overcast,180,2013-07-21 08:00:00
12:08 AM,55.9,54.0,93,29.99,10.0,South,4.6,-,N/A,,Overcast,180,2013-07-21 08:08:00
12:33 AM,57.0,54.0,89,29.99,10.0,SSE,6.9,-,N/A,,Overcast,160,2013-07-21 08:33:00
12:53 AM,57.0,54.0,89,29.98,10.0,South,6.9,-,N/A,,Overcast,170,2013-07-21 08:53:00
1:10 AM,57.0,54.0,89,29.98,10.0,South,8.1,-,N/A,,Overcast,190,2013-07-21 09:10:00
1:53 AM,57.0,54.0,89,29.98,7.0,South,8.1,-,0.00,,Overcast,190,2013-07-21 09:53:00
2:28 AM,55.9,54.0,93,29.97,8.0,South,4.6,-,0.01,,Overcast,190,2013-07-21 10:28:00
2:53 AM,55.9,54.0,93,29.97,10.0,East,5.8,-,0.01,,Overcast,90,2013-07-21 10:53:00
3:53 AM,55.9,54.0,93,29.96,10.0,ESE,6.9,-,N/A,,Overcast,120,2013-07-21 11:53:00
4:06 AM,57.0,54.0,89,29.95,10.0,ESE,4.6,-,N/A,,Overcast,110,2013-07-21 12:06:00
4:53 AM,55.9,54.0,93,29.95,8.0,East,5.8,-,0.01,,Overcast,100,2013-07-21 12:53:00
5:05 AM,55.9,54.0,93,29.95,6.0,East,4.6,-,N/A,,Overcast,100,2013-07-21 13:05:00
5:13 AM,55.9,54.0,93,29.95,9.0,ESE,5.8,-,N/A,,Overcast,110,2013-07-21 13:13:00
5:24 AM,55.9,54.0,93,29.95,10.0,East,5.8,-,N/A,,Overcast,90,2013-07-21 13:24:00
5:53 AM,55.9,54.0,93,29.95,7.0,East,4.6,-,N/A,Fog,Overcast,90,2013-07-21 13:53:00
6:12 AM,55.9,54.0,93,29.95,7.0,ENE,3.5,-,N/A,Fog,Overcast,70,2013-07-21 14:12:00
6:24 AM,55.9,54.0,93,29.95,2.5,Calm,Calm,-,0.00,Fog-Rain,Light Rain,0,2013-07-21 14:24:00
6:30 AM,55.9,54.0,93,29.95,1.5,SE,3.5,-,0.00,Fog-Rain,Light Rain,130,2013-07-21 14:30:00
6:42 AM,55.9,54.0,93,29.95,4.0,Calm,Calm,-,0.01,Rain,Light Rain,0,2013-07-21 14:42:00
6:53 AM,55.9,54.0,93,29.95,5.0,East,3.5,-,0.01,,Overcast,100,2013-07-21 14:53:00
7:09 AM,55.9,54.0,93,29.94,2.0,East,3.5,-,0.00,,Overcast,100,2013-07-21 15:09:00
7:26 AM,55.9,54.0,93,29.94,1.8,SSE,5.8,-,0.01,Rain,Light Rain,150,2013-07-21 15:26:00
7:30 AM,55.9,54.0,93,29.94,4.0,SSE,4.6,-,0.01,Rain,Light Rain,150,2013-07-21 15:30:00
7:43 AM,55.9,54.0,93,29.94,5.0,SSE,6.9,-,0.01,,Overcast,160,2013-07-21 15:43:00
7:53 AM,57.0,54.0,89,29.94,4.0,South,5.8,-,0.01,,Overcast,180,2013-07-21 15:53:00
8:04 AM,55.9,54.0,93,29.94,1.8,South,5.8,-,0.00,Rain,Light Rain,190,2013-07-21 16:04:00
8:10 AM,55.9,54.0,93,29.94,2.0,South,6.9,-,0.00,Rain,Light Rain,190,2013-07-21 16:10:00
8:53 AM,57.0,55.0,93,29.94,3.0,Calm,Calm,-,0.02,Rain,Light Rain,0,2013-07-21 16:53:00
9:53 AM,59.0,55.0,87,29.94,10.0,Calm,Calm,-,0.00,,Overcast,0,2013-07-21 17:53:00
9:56 AM,59.0,55.0,87,29.94,10.0,Calm,Calm,-,N/A,,Overcast,0,2013-07-21 17:56:00
10:29 AM,59.0,55.0,87,29.94,10.0,West,4.6,-,N/A,,Overcast,270,2013-07-21 18:29:00
10:53 AM,59.0,54.0,83,29.95,10.0,North,-9999.0,-,N/A,,Overcast,0,2013-07-21 18:53:00
11:53 AM,60.1,55.0,83,29.95,10.0,SSW,4.6,-,0.00,,Overcast,210,2013-07-21 19:53:00
12:14 PM,60.1,55.0,83,29.95,10.0,SSW,4.6,-,N/A,,Overcast,200,2013-07-21 20:14:00
12:53 PM,60.1,55.0,83,29.96,10.0,WSW,4.6,-,N/A,,Overcast,240,2013-07-21 20:53:00
1:53 PM,60.1,54.0,80,29.96,10.0,SW,5.8,-,N/A,,Overcast,230,2013-07-21 21:53:00
2:53 PM,60.1,55.0,83,29.96,10.0,West,5.8,-,N/A,,Mostly Cloudy,260,2013-07-21 22:53:00
3:53 PM,62.1,55.0,78,29.97,10.0,SW,4.6,-,N/A,,Mostly Cloudy,230,2013-07-21 23:53:00
4:05 PM,61.0,55.0,81,29.96,10.0,SW,5.8,-,N/A,,Overcast,220,2013-07-22 00:05:00
4:53 PM,60.1,55.0,83,29.97,10.0,WSW,5.8,-,N/A,,Mostly Cloudy,240,2013-07-22 00:53:00
5:53 PM,63.0,55.9,78,29.97,10.0,SW,5.8,-,N/A,,Mostly Cloudy,220,2013-07-22 01:53:00
6:53 PM,62.1,55.9,80,29.97,10.0,SW,5.8,-,N/A,,Mostly Cloudy,220,2013-07-22 02:53:00
7:53 PM,61.0,55.0,81,29.97,10.0,Calm,Calm,-,N/A,,Mostly Cloudy,0,2013-07-22 03:53:00
8:53 PM,60.1,55.0,83,29.97,10.0,SSW,3.5,-,N/A,,Mostly Cloudy,210,2013-07-22 04:53:00
9:53 PM,59.0,54.0,83,29.97,10.0,South,3.5,-,N/A,,Overcast,190,2013-07-22 05:53:00
10:53 PM,59.0,55.0,87,29.98,10.0,South,4.6,-,N/A,,Overcast,180,2013-07-22 06:53:00
11:53 PM,59.0,54.0,83,29.98,10.0,East,3.5,-,N/A,,Overcast,100,2013-07-22 07:53:00